Weather Roundup
Issued by NWS

Home | Current Version | Previous Version | Text Only | Print | Product List | Glossary On
Versions: 1 2 3 4 5 6 7 8 9 10 11 12 13 14 15 16 17 18 19 20 21 22 23 24 25 26 27 28 29 30 31 32 33 34 35 36 37 38 39 40 41 42 43 44 45 46 47 48 49 50
000
NZUS93 KARX 230859
HRRWXR

CURRENT HOURLY OBSERVATIONS ACROSS
MUCH OF THE UPPER MISSISSIPPI VALLEY
NATIONAL WEATHER SERVICE LA CROSSE WI
400 AM CDT SAT AUG 23 2014


...SOUTHEAST MINNESOTA...


CITY           SKY/WX    TMP DP  RH WIND       PRES   REMARKS
ROCHESTER      MOCLDY    68  65  90 NE5       29.98F FOG
ROCHESTER/MAYO FAIR      69  67  95 CALM      29.98F
WINONA         CLOUDY    72  70  94 CALM      29.96F
AUSTIN         MOCLDY    66  66 100 NE5       29.96F FOG
ALBERT LEA     MOCLDY    70  66  88 E6        29.96F FOG
DODGE CENTER   FOG       66  66 100 NE3       29.98F VSB 1/2
PRESTON        MOCLDY    67  67 100 CALM      29.99S FOG
OWATONNA       CLOUDY    66  64  94 N3        29.98S FOG
FARIBAULT      CLOUDY    70  63  78 CALM      29.98F HAZE
$$

...ELSEWHERE IN MINNESOTA...


CITY           SKY/WX    TMP DP  RH WIND       PRES   REMARKS
MINNEAPOLIS    CLOUDY    69  68  96 NE8       29.98F
INTNL FALLS    FOG       58  58 100 CALM      30.07R VSB 1/2
DULUTH         MOCLDY    62  59  90 E8        30.06R
RED WING       CLOUDY    70  68  94 E3        29.96F
REDWOOD FALLS  CLOUDY    69  67  93 E5        29.99R
MANKATO        CLOUDY    70  64  83 E6        29.97F
WORTHINGTON      N/A     68  66  94 NE5       29.99S
FAIRMONT       MOCLDY    61  61 100 MISG      29.95F
$$

...SOUTHWEST WISCONSIN...


CITY           SKY/WX    TMP DP  RH WIND       PRES   REMARKS
LA CROSSE      CLOUDY    73  70  90 N3        29.95F
PRAIRIE DU CHI CLOUDY    76  73  90 CALM      29.94F
BOSCOBEL       FOG       74  72  93 CALM      29.95S VSB 1/4
LONE ROCK      FOG       74  70  87 CALM      29.96S VSB 3/4
PLATTEVILLE    MOCLDY    74  73  96 CALM      29.98S VSB 3/4
FORT MC COY    FOG       69  68  97 CALM      29.98S VSB 1/4
CAMP DOUGLAS   FOG       70  70 100 CALM      29.97F VSB 1/4
VIROQUA        CLOUDY    70  70 100 CALM      29.98F
WIS DELLS      CLOUDY    73  71  94 CALM      29.97S FOG
$$

...ELSEWHERE IN WISCONSIN...


CITY           SKY/WX    TMP DP  RH WIND       PRES   REMARKS
MILWAUKEE      FOG       69  68  96 CALM      29.99F VSB 1/8
MADISON        CLOUDY    75  73  93 S6        29.97S FOG
GREEN BAY      LGT RAIN  69  67  93 NE3       30.01R
EAU CLAIRE     NOT AVBL
BLACK RVR FLS  FOG       73  73 100 CALM      29.97F VSB 1/4
MEDFORD        FOG       68  68 100 NE3       30.03S VSB 1/2
WAUSAU         CLOUDY    70  69  97 SE6       30.00S FOG
WIS RAPIDS     CLOUDY    72  70  93 E5        30.00S FOG
MARSHFIELD     CLOUDY    73  71  93 E5        30.00S FOG
RICE LAKE      CLOUDY    66  64  94 CALM      30.03F
$$

...NORTHEAST IOWA...


CITY           SKY/WX    TMP DP  RH WIND       PRES   REMARKS
WATERLOO       MOCLDY    74  72  93 NE5       29.91F
DUBUQUE        CLOUDY    72  71  97 CALM      29.97S
DECORAH        CLOUDY    72  72 100 CALM      29.96F
MASON CITY     MOCLDY    69  68  96 NE5       29.95F FOG
CHARLES CITY   MOCLDY    72  70  94 NE7       29.94F
OELWEIN        CLOUDY    75  75 100 NE6       29.95F FOG
$$

...ELSEWHERE IN IOWA...


CITY           SKY/WX    TMP DP  RH WIND       PRES   REMARKS
DES MOINES     FOG       77  76  96 NE9       29.88S THUNDER VSB 1/2
IOWA CITY      CLOUDY    75  75 100 CALM      29.94F FOG
FORT DODGE     CLOUDY    72  70  94 E6        29.96R
MARSHALLTOWN   MOCLDY    71  70  96 E9        29.90F
CEDAR RAPIDS   CLOUDY    74  74 100 E8        29.91F FOG
$$

...NORTHERN ILLINOIS...


CITY           SKY/WX    TMP DP  RH WIND       PRES   REMARKS
CHICAGO-OHARE  CLOUDY    74  70  87 N5        29.98S FOG
DUPAGE         MOCLDY    73  71  93 CALM      29.97S FOG
CHICAGO-MIDWAY MOCLDY    76  74  93 CALM      29.97S FOG
MOLINE         MOCLDY    76  73  91 E5        29.94S
ROCKFORD       CLOUDY    74  71  91 CALM      29.98F
STERLING       MOCLDY    73  72  94 CALM      29.97R
PEORIA         MOCLDY    76  73  91 CALM      29.95S
$$

NOTE: "FAIR" INDICATES FEW OR NO CLOUDS BELOW 12,000 FEET WITH NO
SIGNIFICANT WEATHER AND/OR OBSTRUCTIONS TO VISIBILITY. WIND
SPEEDS ARE IN MILES-PER-HOUR.



USA.gov is the U.S. government's official web portal to all federal, state and local government web resources and services.